Starlink 5181

operational
NORAD ID: 54070 Int'l Des: 2022-136 Owner: SPXS Country: US Constellation: starlink
LEOCIRCULAR

About Starlink 5181

Description loading...

Live Position

Loading 3D Globe...

Upcoming Passes

Altitude History

Altitude vs Time

uPlot chart will show altitude changes over time

Two-Line Element Set

1 54070U 22136V 25348.34178139 .00001766 00000-0 12903-3 0 9996
2 54070 53.2183 6.9579 0001308 91.4745 268.6397 15.08835736173961
Epoch: Dec 14, 2025 • Age: 26 hours

Current Status

Altitude 545.2 km
Velocity 7.60 km/s
Sub-Earth Point 52.22°N, 126.98°W
Launch Date Oct 20, 2022
Age 3.1 years
Type internet

Technical Details

Classification Payload
Mass 305.00 kg
Dry Mass 290.00 kg
Total Mass 305.00 kg
Length 0.20 m
Diameter 2.80 m
Span 9.00 m
Shape Box + pan
Manufacturer SPXS
Bus Type Starlink
Phase Status In Orbit
Owner/State SPXS/US

Large Constellations

Loading constellations...